Redmond, OR

2:23 AM PST on January 19, 2018 (GMT -0800)
Roberts Field Airport

Weather History for KRDM - January, 2014

Change the Weather History Date:

Tuesday, January 7, 2014

  Actual Average Record
Temperature  
Mean Temperature 39 °F 32 °F  
Max Temperature 48 °F 41 °F 60 °F (1983)
Min Temperature 30 °F 22 °F -11 °F (1979)
Degree Days  
Heating Degree Days 26 33  
Month to date heating degree days 222 236  
Since 1 July heating degree days 3117 3076  
Cooling Degree Days 0 0  
Month to date cooling degree days 0 0  
Year to date cooling degree days 0 0  
Moisture  
Dew Point 28 °F    
Average Humidity 76    
Maximum Humidity 100    
Minimum Humidity 51    
Precipitation  
Precipitation 0.01 in 0.04 in 0.51 in (1990)
Month to date precipitation 0.01 0.25  
Year to date precipitation 0.01 0.25  
Sea Level Pressure  
Sea Level Pressure 30.09 in    
Wind  
Wind Speed 4 mph (ESE)    
Max Wind Speed 15 mph    
Max Gust Speed 20 mph    
Visibility 10 miles    
Events Rain    
T = Trace of Precipitation, MM = Missing Value Source: NWS Daily Summary

Daily Weather History Graph

Daily Weather History Graph

Search for Another Location

Airport or City:

Trip Planner

Search our weather history database for the weather conditions in past years. The results will help you decide how hot, cold, wet, or windy it might be!

Date:

Astronomy

Jan. 07, 2014 Rise Set
Actual Time 7:39 AM PST 4:42 PM PST
Civil Twilight 7:06 AM PST 5:15 PM PST
Nautical Twilight 6:30 AM PST 5:51 PM PST
Astronomical Twilight 5:55 AM PST 6:26 PM PST
Moon 11:14 AM PST (1/7) No Moon Set
Length of Visible Light 10h 08m
Length of Day
9h 02m
Waxing Crescent, 46% of the Moon is Illuminated
Jan 7
Waxing Crescent
Jan 7
First Quarter
Jan 15
Full
Jan 23
Last Quarter
Jan 30
New

Hourly Weather History & Observations

Time (PST) Temp. Windchill Dew Point Humidity Pressure Visibility Wind Dir Wind Speed Gust Speed Precip Events Conditions
12:56 AM 33.1 °F - 21.0 °F 61% 30.15 in 10.0 mi Calm Calm - N/A   Overcast
1:56 AM 34.0 °F - 18.0 °F 52% 30.14 in 10.0 mi Calm Calm - N/A   Overcast
2:56 AM 30.9 °F - 19.9 °F 64% 30.16 in 10.0 mi Calm Calm - N/A   Overcast
3:56 AM 32.0 °F - 19.9 °F 61% 30.15 in 10.0 mi Calm Calm - N/A   Overcast
4:56 AM 34.0 °F 29.8 °F 21.0 °F 59% 30.15 in 10.0 mi NNE 4.6 mph - N/A   Overcast
5:55 AM 33.8 °F 30.8 °F 21.2 °F 60% - 10.0 mi East 3.5 mph - N/A   Overcast
5:56 AM 34.0 °F 31.0 °F 21.9 °F 61% 30.15 in 10.0 mi East 3.5 mph - 0.00 in   Overcast
6:56 AM 35.1 °F 32.2 °F 21.9 °F 59% 30.14 in 10.0 mi NE 3.5 mph - N/A   Overcast
7:56 AM 35.1 °F 31.0 °F 24.1 °F 64% 30.14 in 10.0 mi ENE 4.6 mph - N/A   Mostly Cloudy
8:56 AM 37.9 °F 35.5 °F 28.0 °F 68% 30.14 in 10.0 mi ESE 3.5 mph - N/A   Mostly Cloudy
9:56 AM 44.1 °F 42.5 °F 30.9 °F 60% 30.13 in 10.0 mi Variable 3.5 mph - N/A   Scattered Clouds
10:56 AM 46.0 °F 42.5 °F 30.0 °F 54% 30.11 in 10.0 mi SSE 6.9 mph - N/A   Mostly Cloudy
11:56 AM 46.0 °F 42.5 °F 30.0 °F 54% 30.08 in 10.0 mi SE 6.9 mph - N/A   Overcast
12:56 PM 46.9 °F - 32.0 °F 56% 30.03 in 10.0 mi South 6.9 mph - N/A   Mostly Cloudy
1:56 PM 46.9 °F - 33.1 °F 59% 30.02 in 10.0 mi SSW 8.1 mph - N/A   Overcast
2:56 PM 46.9 °F - 32.0 °F 56% 30.02 in 10.0 mi SSW 5.8 mph - N/A   Overcast
3:56 PM 46.9 °F - 34.0 °F 61% 30.03 in 10.0 mi SW 12.7 mph 19.6 mph N/A   Overcast
4:56 PM 43.0 °F 38.2 °F 37.0 °F 80% 30.05 in 10.0 mi NW 8.1 mph - 0.01 in   Overcast
5:56 PM 34.0 °F 31.0 °F 32.0 °F 92% 30.06 in 10.0 mi SE 3.5 mph - N/A   Clear
6:56 PM 35.1 °F 32.2 °F 33.1 °F 92% 30.05 in 10.0 mi SE 3.5 mph - N/A   Overcast
7:56 PM 35.1 °F 31.0 °F 33.1 °F 92% 30.06 in 10.0 mi ENE 4.6 mph - N/A   Overcast
8:56 PM 34.0 °F - 33.1 °F 96% 30.06 in 10.0 mi Calm Calm - N/A   Mostly Cloudy
9:56 PM 34.0 °F 31.0 °F 32.0 °F 92% 30.07 in 10.0 mi NNE 3.5 mph - N/A   Overcast
10:56 PM 34.0 °F - 32.0 °F 92% 30.08 in 10.0 mi Calm Calm - N/A   Overcast
11:56 PM 35.1 °F 31.0 °F 33.1 °F 92% 30.07 in 10.0 mi NE 4.6 mph - 0.00 in Rain Light Rain